This is the latest recevied weather packets stored in our database for station/object OZ7MKS. If no packets are shown the sender has not sent any weather packets the latest 10 day(s).
| Time | Temp. | Humidity | Pressure | Rain* | Wind** | Luminosity | Snow |
|---|---|---|---|---|---|---|---|
| 1778393103 | 9.44° C | 89% | 1015.9 hPa | 0 mm | - | - | - |
| 1778391003 | 8.33° C | 93% | 1016.2 hPa | 0 mm | - | - | - |
| 1778388604 | 7.22° C | 94% | 1016.1 hPa | 0 mm | - | - | - |
| 1778387403 | 6.67° C | 93% | 1016.2 hPa | 0 mm | - | - | - |
| 1778386503 | 6.11° C | 93% | 1016.1 hPa | 0 mm | - | - | - |
| 1778386203 | 6.11° C | 93% | 1016.3 hPa | 0 mm | - | - | - |
| 1778382003 | 5° C | 92% | 1016.7 hPa | 0 mm | - | - | - |
| 1778381704 | 5° C | 92% | 1016.8 hPa | 0 mm | - | - | - |
| 1778376004 | 3.89° C | 89% | 1017.3 hPa | 0 mm | - | - | - |
| 1778373604 | 3.89° C | 89% | 1017.5 hPa | 0 mm | - | - | - |
| 1778370904 | 4.44° C | 86% | 1017.8 hPa | 0 mm | - | - | - |
| 1778368804 | 5° C | 85% | 1018.1 hPa | 0 mm | - | - | - |
| 1778364904 | 6.11° C | 83% | 1018.8 hPa | 0 mm | - | - | - |
| 1778364003 | 6.67° C | 83% | 1019 hPa | 0 mm | - | - | - |
| 1778363104 | 6.67° C | 83% | 1019 hPa | 0 mm | - | - | - |
| 1778362804 | 7.22° C | 82% | 1019 hPa | 0 mm | - | - | - |
| 1778361304 | 7.22° C | 82% | 1019.1 hPa | 0 mm | - | - | - |
| 1778360103 | 7.78° C | 81% | 1019.2 hPa | 0 mm | - | - | - |
| 1778359503 | 7.78° C | 81% | 1019.3 hPa | 0 mm | - | - | - |
| 1778358604 | 8.33° C | 81% | 1019.3 hPa | 0 mm | - | - | - |
| 1778357404 | 8.89° C | 79% | 1019.4 hPa | 0 mm | - | - | - |
| 1778356803 | 8.89° C | 78% | 1019.3 hPa | 0 mm | - | - | - |
| 1778356204 | 9.44° C | 77% | 1019.4 hPa | 0 mm | - | - | - |
| 1778355304 | 10° C | 75% | 1019.4 hPa | 0 mm | - | - | - |
| 1778354704 | 10.56° C | 73% | 1019.5 hPa | 0 mm | - | - | - |
* Rain latest hour (hover to see other rain measurements)
** Current wind speed in m/s (hover to see current wind gust speed)